[[{"header":{"parameterUnit":"m.s-1","parameterCategory":1,"la1":30.2991,"la2":30.254,"lo1":-89.0895,"lo2":-89.0444,"dy":0.0017,"dx":0.0017,"nx":28,"ny":28,"refTime":"2024-04-22T21:00:00:Z","depth":0,"parameterNumber":2,"parameterNumberName":"U-component_of_WINDS"},"data":[0,0,0,0,0,0,0,0,0,0,0,0,0,0,0,0,0,0,0,0,0,0,0,0,0,0,0,0,0,0,0,0,0,0,0,0,0,0,0,0,0,0,0,0,0,0,0,0,0,0,0,0,0,0,0,0,0,0,-1.5846,-1.5846,0,-1.5903,-1.5903,-1.5904,-1.5905,-1.5904,-1.5904,-1.5903,-1.5962,-1.5964,-1.5967,0,0,0,0,0,0,0,0,0,0,0,0,0,-1.574,-1.5742,-1.5846,-1.5846,-1.5847,-1.5902,-1.5903,-1.5904,-1.5905,-1.5904,-1.5904,-1.5903,-1.5961,-1.5964,-1.5967,0,0,0,0,0,0,0,0,0,0,0,0,0,-1.5791,-1.5743,-1.5845,-1.5854,-1.5856,-1.5902,-1.5903,-1.5904,-1.5905,-1.5904,-1.5903,-1.5902,-1.5961,-1.5964,-1.5967,-1.6009,0,0,-1.5977,-1.5979,0,0,0,0,0,0,0,0,-1.5788,-1.5794,-1.5852,-1.5854,-1.5855,-1.5896,-1.5888,-1.5939,-1.5906,-1.5887,-1.5903,-1.5902,-1.5941,-1.5946,-1.5959,-1.6012,-1.6014,-1.5978,-1.598,-1.5981,-1.5982,0,0,0,0,0,0,0,-1.5784,-1.5792,-1.5868,-1.5853,-1.5855,-1.5856,-1.5862,-1.5898,-1.5919,-1.5888,-1.5888,-1.5895,-1.5942,-1.5956,-1.596,-1.6015,-1.5978,-1.5981,-1.5983,-1.5984,-1.6107,-1.6109,0,0,0,0,0,0,-1.5779,-1.5789,-1.5866,-1.587,-1.5818,-1.5859,-1.5866,-1.5884,-1.5919,-1.5923,-1.5896,-1.5895,-1.595,-1.5956,-1.5962,-1.6015,-1.5981,-1.5984,-1.5986,-1.6106,-1.6108,-1.6109,0,0,0,0,0,0,-1.5777,-1.5786,-1.5864,-1.583,-1.584,-1.5862,-1.5882,-1.5885,-1.5899,-1.5925,-1.5928,-1.5906,-1.595,-1.5958,-1.5998,-1.6017,-1.5986,-1.5989,-1.6105,-1.6107,-1.6108,-1.6119,0,0,0,0,0,0,-1.5773,-1.5785,-1.58,-1.583,-1.5841,-1.5898,-1.5883,-1.5887,-1.5905,-1.5904,-1.5935,-1.5939,-1.595,-1.5993,-1.6001,-1.6021,-1.5991,-1.6103,-1.6106,-1.6108,-1.6117,-1.6121,-1.6124,0,0,0,0,0,-1.577,-1.5801,-1.5801,-1.581,-1.5861,-1.5899,-1.5905,-1.5916,-1.5907,-1.5923,-1.5939,-1.5938,-1.6014,-1.5997,-1.6006,-1.6027,-1.6102,-1.6105,-1.6108,-1.6115,-1.612,-1.6124,0,0,0,0,0,0,-1.5772,-1.5805,-1.5805,-1.5846,-1.587,-1.5899,-1.5919,-1.5921,-1.5948,-1.5946,-1.5959,-1.5966,-1.6006,-1.6021,-1.6002,-1.6071,-1.6057,-1.6062,-1.6059,-1.6064,-1.6068,-1.6063,-1.5994,0,0,0,0,0,-1.5778,-1.5805,-1.5832,-1.5866,-1.5878,-1.5897,-1.5913,-1.592,-1.5945,-1.5955,-1.5974,-1.5999,-1.6028,-1.6047,-1.6075,-1.612,-1.6127,-1.6139,-1.6143,-1.6145,-1.6149,-1.6176,-1.6181,-1.6119,-1.6118,-1.6118,0,0,-1.5789,-1.581,-1.5826,-1.5867,-1.5886,-1.5915,-1.5905,-1.5935,-1.5957,-1.596,-1.5999,-1.6014,-1.6043,-1.6085,-1.6105,-1.6099,-1.6169,-1.6149,-1.6151,-1.6154,-1.6179,-1.6185,-1.619,-1.612,-1.612,-1.612,0,0,-1.5824,-1.5842,-1.5873,-1.5893,-1.5922,-1.5935,-1.5942,-1.5972,-1.5982,-1.6022,-1.6025,-1.6051,-1.6101,-1.6122,-1.6139,-1.6185,-1.6185,-1.6194,-1.6213,-1.6238,-1.6243,-1.6248,-1.6265,-1.6271,-1.6198,-1.6198,-1.6198,0,-1.5834,-1.5877,-1.5889,-1.592,-1.5939,-1.5943,-1.5975,-1.5993,-1.603,-1.6043,-1.6036,-1.61,-1.6119,-1.6168,-1.6179,-1.6193,-1.6203,-1.619,-1.6241,-1.6246,-1.625,-1.6267,-1.6273,-1.6199,-1.6199,-1.6198,-1.6198,0,-1.5889,-1.5919,-1.5941,-1.5977,-1.5998,-1.6029,-1.6047,-1.6067,-1.6073,-1.6087,-1.6128,-1.6152,-1.6186,-1.6198,-1.6203,-1.6248,-1.6243,-1.6239,-1.6225,-1.6257,-1.6273,-1.6279,-1.62,-1.62,-1.6199,-1.6199,0,0,-1.5926,-1.5969,-1.5977,-1.5994,-1.6027,-1.6051,-1.6084,-1.6117,-1.6135,-1.6161,-1.6189,-1.6233,-1.6229,-1.6248,-1.6257,-1.6279,-1.6315,-1.6272,-1.6273,-1.6279,-1.6367,-1.637,-1.6377,-1.6316,-1.6318,-1.6319,-1.6365,0,-1.5965,-1.6022,-1.6035,-1.6084,-1.6113,-1.6119,-1.6147,-1.6172,-1.6186,-1.6214,-1.623,-1.6261,-1.6253,-1.6266,-1.6288,-1.6306,-1.6333,-1.6303,-1.6343,-1.6345,-1.6336,-1.6386,-1.6389,-1.6431,-1.6371,-1.6372,-1.6373,0,-1.6017,-1.6045,-1.6098,-1.6129,-1.6142,-1.6167,-1.62,-1.6226,-1.6254,-1.6263,-1.6286,-1.6293,-1.6328,-1.6313,-1.6363,-1.6342,-1.636,-1.6372,-1.6374,-1.6378,-1.636,-1.6391,-1.6445,-1.6451,-1.6383,-1.6382,-1.6381,0,-1.604,-1.609,-1.6129,-1.6143,-1.618,-1.6198,-1.6215,-1.6242,-1.6262,-1.6291,-1.6305,-1.6337,-1.6355,-1.6381,-1.6397,-1.6385,-1.6446,-1.6432,-1.6456,-1.6455,-1.6468,-1.6467,-1.6525,-1.6479,-1.6479,-1.6479,-1.6479,0,-1.6082,-1.6114,-1.6139,-1.6163,-1.62,-1.6215,-1.6251,-1.6268,-1.6293,-1.6321,-1.6328,-1.6354,-1.6373,-1.6403,-1.6415,-1.6455,-1.6463,-1.6473,-1.6476,-1.6472,-1.6471,-1.6483,-1.6481,-1.6481,-1.648,-1.648,-1.648,0,-1.6112,-1.613,-1.6173,-1.6205,-1.6214,-1.624,-1.6268,-1.6292,-1.6308,-1.6343,-1.6353,-1.6377,-1.6412,-1.6431,-1.6475,-1.6484,-1.6529,-1.653,-1.6519,-1.652,-1.6543,-1.654,-1.6611,-1.6622,-1.6569,-1.6569,-1.6569,0,-1.6138,-1.6163,-1.6198,-1.6218,-1.6235,-1.6265,-1.6286,-1.6303,-1.6324,-1.636,-1.638,-1.6415,-1.6444,-1.6501,-1.6523,-1.6557,-1.6559,-1.6582,-1.6564,-1.6561,-1.656,-1.6559,-1.6562,-1.6585,-1.6585,-1.6586,-1.6586,0,-1.6182,-1.619,-1.6219,-1.6252,-1.6277,-1.6304,-1.633,-1.6346,-1.6367,-1.6391,-1.6427,-1.645,-1.6496,-1.6531,-1.6568,-1.6586,-1.659,-1.6592,-1.6599,-1.6595,-1.6588,-1.6593,-1.6527,-1.659,-1.6589,-1.6589,-1.6589,-1.6589,-1.6211,-1.6234,-1.6263,-1.6296,-1.6318,-1.6343,-1.6368,-1.6387,-1.6417,-1.6455,-1.6464,-1.6502,-1.6532,-1.6581,-1.6601,-1.6632,-1.6628,-1.6638,-1.6641,-1.6643,-1.6644,-1.6583,-1.6639,-1.6639,-1.6639,-1.6638,-1.6638,0,-1.6255,-1.6275,-1.6305,-1.6342,-1.6369,-1.6371,-1.6401,-1.6423,-1.6457,-1.6484,-1.6514,-1.6556,-1.6591,-1.6617,-1.6654,-1.6674,-1.6677,-1.6683,-1.6681,-1.6686,-1.6646,-1.6636,-1.668,-1.668,-1.668,-1.668,-1.668,-1.668,-1.6282,-1.6321,-1.6333,-1.6385,-1.6404,-1.6442,-1.6459,-1.6483,-1.6505,-1.6552,-1.6582,-1.6598,-1.6626,-1.6665,-1.6698,-1.6705,-1.6718,-1.6724,-1.6731,-1.6693,-1.6688,-1.6684,-1.6675,-1.6726,-1.6726,-1.6768,-1.6769,-1.6769]},{"header":{"parameterUnit":"m.s-1","parameterCategory":1,"la1":30.2991,"la2":30.254,"lo1":-89.0895,"lo2":-89.0444,"dy":0.0017,"dx":0.0017,"nx":28,"ny":28,"refTime":"2024-04-22T21:00:00:Z","depth":0,"parameterNumber":3,"parameterNumberName":"V-component_of_WINDS"},"data":[0,0,0,0,0,0,0,0,0,0,0,0,0,0,0,0,0,0,0,0,0,0,0,0,0,0,0,0,0,0,0,0,0,0,0,0,0,0,0,0,0,0,0,0,0,0,0,0,0,0,0,0,0,0,0,0,0,0,4.4948,4.4947,0,4.4881,4.488,4.488,4.4856,4.4856,4.4857,4.4857,4.4782,4.478,4.4778,0,0,0,0,0,0,0,0,0,0,0,0,0,4.5047,4.5046,4.4948,4.4947,4.4946,4.4881,4.488,4.4879,4.4856,4.4856,4.4857,4.4857,4.4783,4.478,4.4777,0,0,0,0,0,0,0,0,0,0,0,0,0,4.4995,4.5045,4.4948,4.4927,4.4924,4.4882,4.488,4.4879,4.4856,4.4856,4.4857,4.4857,4.4784,4.478,4.4777,4.4749,0,0,4.4767,4.4765,0,0,0,0,0,0,0,0,4.4998,4.4991,4.4931,4.4928,4.4925,4.4878,4.4888,4.4835,4.4856,4.4882,4.4857,4.4857,4.4813,4.4807,4.4794,4.4745,4.4742,4.4767,4.4765,4.4763,4.4762,0,0,0,0,0,0,0,4.5001,4.4994,4.4921,4.493,4.4926,4.4918,4.4911,4.4878,4.4846,4.4879,4.4878,4.487,4.4812,4.4797,4.4792,4.4741,4.4767,4.4764,4.4762,4.476,4.4664,4.4663,0,0,0,0,0,0,4.5009,4.4997,4.4923,4.4919,4.4963,4.4916,4.4908,4.4892,4.4846,4.484,4.487,4.487,4.4803,4.4796,4.4789,4.4752,4.4763,4.476,4.4758,4.4664,4.4664,4.4663,0,0,0,0,0,0,4.5012,4.5003,4.4926,4.4958,4.4947,4.4914,4.4896,4.4891,4.4876,4.4839,4.4833,4.4862,4.4803,4.4794,4.4759,4.4749,4.4758,4.4755,4.4665,4.4664,4.4664,4.4678,0,0,0,0,0,0,4.5015,4.5004,4.4995,4.4958,4.4946,4.4899,4.4896,4.4889,4.4871,4.487,4.483,4.4823,4.4802,4.4764,4.4756,4.4745,4.4753,4.4666,4.4665,4.4664,4.4678,4.4678,4.4678,0,0,0,0,0,4.5018,4.5,4.4994,4.4985,4.4933,4.4899,4.4892,4.487,4.4871,4.486,4.4836,4.4824,4.4752,4.4761,4.4751,4.4739,4.4666,4.4665,4.4664,4.4679,4.4678,4.4678,0,0,0,0,0,0,4.5034,4.4995,4.4988,4.4958,4.4932,4.4895,4.488,4.487,4.4842,4.4842,4.4814,4.4805,4.4772,4.4752,4.4763,4.4708,4.4708,4.4705,4.4723,4.4722,4.4722,4.4727,4.475,0,0,0,0,0,4.5035,4.5012,4.4978,4.4954,4.4942,4.4914,4.4898,4.4883,4.4855,4.4843,4.4816,4.4787,4.4758,4.4739,4.4709,4.4676,4.4665,4.4662,4.4662,4.4662,4.4659,4.4638,4.4636,4.4659,4.4659,4.4659,0,0,4.5035,4.501,4.4997,4.4957,4.4935,4.4911,4.4904,4.4878,4.4859,4.4838,4.4805,4.4784,4.4749,4.4715,4.4698,4.4697,4.465,4.466,4.466,4.4657,4.4637,4.4635,4.4633,4.4658,4.4658,4.4659,0,0,4.5022,4.5002,4.498,4.4959,4.4927,4.4908,4.4903,4.4867,4.4853,4.482,4.4803,4.4778,4.4729,4.4704,4.4686,4.4663,4.4651,4.4654,4.4652,4.4632,4.463,4.4629,4.462,4.4617,4.4652,4.4652,4.4652,0,4.5025,4.4989,4.4969,4.4944,4.4926,4.4909,4.4885,4.4865,4.4824,4.4811,4.4811,4.4748,4.4723,4.4682,4.4677,4.4662,4.4654,4.4659,4.4633,4.4631,4.4629,4.462,4.4617,4.4652,4.4652,4.4652,4.4652,0,4.4994,4.4969,4.4955,4.4919,4.4899,4.4875,4.4849,4.4831,4.4818,4.4799,4.4763,4.4733,4.4698,4.4687,4.4673,4.4644,4.4644,4.4639,4.4638,4.4627,4.4619,4.4615,4.4653,4.4653,4.4653,4.4653,0,0,4.4989,4.4943,4.4938,4.4921,4.4885,4.4864,4.4838,4.4805,4.479,4.4762,4.4738,4.4697,4.4691,4.467,4.4653,4.4636,4.4619,4.4633,4.4631,4.4631,4.4583,4.4587,4.4584,4.4612,4.4611,4.461,4.4586,0,4.4971,4.4927,4.4908,4.4871,4.4847,4.483,4.4807,4.4781,4.4762,4.4737,4.4714,4.4685,4.4681,4.4668,4.465,4.4625,4.4609,4.4627,4.4587,4.4586,4.4596,4.4579,4.4583,4.4562,4.4582,4.4582,4.4581,0,4.4944,4.4919,4.4881,4.4847,4.4836,4.4816,4.4784,4.4761,4.473,4.4717,4.4694,4.4678,4.4648,4.465,4.4607,4.4619,4.4601,4.4586,4.4585,4.458,4.4583,4.4573,4.4555,4.4551,4.4576,4.4576,4.4577,0,4.4944,4.49,4.4871,4.4857,4.4817,4.4804,4.4786,4.4756,4.4737,4.4708,4.4695,4.4663,4.4644,4.4618,4.4593,4.4597,4.4552,4.4552,4.4538,4.4539,4.4529,4.453,4.4507,4.4519,4.4519,4.4519,4.4519,0,4.4925,4.4902,4.4871,4.4853,4.4826,4.4803,4.4776,4.4757,4.473,4.4706,4.4689,4.4666,4.4635,4.4608,4.4588,4.4555,4.4546,4.4534,4.4528,4.4535,4.4537,4.4522,4.4523,4.4518,4.4519,4.4519,4.4519,0,4.492,4.4898,4.4866,4.4831,4.4822,4.4803,4.4772,4.4753,4.4734,4.4704,4.4695,4.4663,4.4631,4.4603,4.456,4.4546,4.4511,4.4505,4.4522,4.4519,4.4507,4.4509,4.4474,4.4468,4.4485,4.4485,4.4485,0,4.491,4.4892,4.4856,4.484,4.4824,4.4798,4.4779,4.4755,4.4736,4.47,4.4684,4.4651,4.4623,4.4571,4.4542,4.4508,4.4501,4.4492,4.4496,4.4503,4.45,4.4501,4.4499,4.4491,4.4491,4.4491,4.4491,0,4.4893,4.4884,4.4859,4.483,4.4809,4.4784,4.4759,4.4746,4.4717,4.4696,4.4664,4.4642,4.4598,4.4565,4.4528,4.4507,4.4493,4.449,4.4485,4.4491,4.4501,4.4495,4.4521,4.4491,4.4491,4.4491,4.4491,4.4491,4.4885,4.4868,4.484,4.4813,4.4792,4.4768,4.4749,4.4727,4.4701,4.4665,4.4652,4.4618,4.4586,4.4536,4.4514,4.4486,4.4484,4.4477,4.4475,4.4474,4.4474,4.4507,4.4479,4.4479,4.4479,4.4479,4.4479,0,4.4867,4.4848,4.4823,4.479,4.4768,4.4759,4.4731,4.4712,4.4684,4.4656,4.4629,4.4591,4.4558,4.4527,4.4492,4.4475,4.4468,4.4467,4.4467,4.4462,4.4478,4.4486,4.4473,4.4473,4.4473,4.4473,4.4473,4.4473,4.4855,4.4826,4.4813,4.4772,4.4753,4.4722,4.4706,4.4684,4.4662,4.4621,4.4594,4.4575,4.4545,4.4508,4.4477,4.4468,4.4455,4.4456,4.4445,4.446,4.4461,4.4462,4.4469,4.4453,4.4453,4.4432,4.4432,4.4431]}]]